EW6882 Weather Reports


time (UTC)temp
C
wind
direction
speed
KPH
gust
KPH
rain 1hr
cm
rain 24hr
cm
rain mn
cm
humidity
%
barometer
mb
20200226010102 3 203 0.0 6.4 0.00 0.00 0.00 1 995.8
20200226005039 3 187 1.6 6.4 0.00 0.00 0.00 1 995.8
20200226004046 4 186 3.2 8.0 0.00 0.00 0.00 1 996.0
20200226003055 4 204 1.6 6.4 0.00 0.00 0.00 1 995.9
20200226002035 4 199 1.6 3.2 0.00 0.00 0.00 1 995.9
20200226001051 4 223 1.6 8.0 0.00 0.00 0.00 1 995.9
20200226000037 4 195 1.6 3.2 0.00 0.00 0.00 1 996.1
20200225235050 4 180 0.0 1.6 0.00 0.00 0.00 1 996.1
20200225234030 4 171 0.0 1.6 0.00 0.00 0.00 1 996.3
20200225233036 4 292 0.0 1.6 0.00 0.00 0.00 1 996.4
20200225232051 4 292 0.0 1.6 0.00 0.00 0.00 1 996.5
20200225231037 4 307 0.0 1.6 0.00 0.00 0.00 1 996.5
20200225230117 4 238 0.0 1.6 0.00 0.00 0.00 1 996.7
20200225225103 5 311 0.0 3.2 0.00 0.00 0.00 1 996.7
20200225224037 5 218 0.0 6.4 0.00 0.00 0.00 1 996.7
20200225223052 5 242 0.0 8.0 0.00 0.00 0.00 1 996.9
20200225222036 5 317 0.0 6.4 0.00 0.00 0.00 1 996.9
20200225221052 5 293 1.6 8.0 0.00 0.00 0.00 1 996.9
20200225220034 5 303 1.6 6.4 0.00 0.00 0.00 1 996.9
20200225215049 5 351 0.0 3.2 0.00 0.00 0.00 1 997.1
20200225214030 5 301 0.0 3.2 0.00 0.00 0.00 1 997.1
20200225213046 5 275 0.0 3.2 0.00 0.00 0.00 1 997.2
20200225212031 5 330 0.0 3.2 0.00 0.00 0.00 1 997.3
20200225211117 5 315 0.0 1.6 0.00 0.00 0.00 1 997.4
20200225210032 5 278 0.0 1.6 0.00 0.00 0.00 1 997.6
20200225205116 5 292 0.0 1.6 0.00 0.00 0.00 1 997.7
20200225204054 5 267 0.0 1.6 0.00 0.00 0.00 1 997.7
20200225203040 5 161 0.0 1.6 0.00 0.00 0.00 1 997.7
20200225202027 5 353 0.0 3.2 0.00 0.00 0.00 1 997.9
20200225201040 6 275 0.0 3.2 0.00 0.00 0.00 1 998.0
20200225200053 6 184 0.0 3.2 0.00 0.00 0.00 1 998.1
20200225195101 6 223 0.0 1.6 0.00 0.00 0.00 1 998.2
20200225194048 6 327 0.0 3.2 0.00 0.00 0.00 1 998.1
20200225193035 6 264 0.0 1.6 0.00 0.00 0.00 1 998.4
20200225192051 6 217 0.0 3.2 0.00 0.00 0.00 1 998.3
20200225191107 6 228 1.6 6.4 0.00 0.00 0.00 1 998.5
20200225190049 6 234 0.0 1.6 0.00 0.00 0.00 1 998.7
20200225185034 6 211 0.0 3.2 0.00 0.00 0.00 1 998.7
20200225184121 6 239 0.0 3.2 0.00 0.00 0.00 1 998.8
20200225183054 6 237 0.0 3.2 0.00 0.00 0.00 1 999.1
20200225182033 6 184 0.0 3.2 0.00 0.00 0.00 1 999.0
20200225181117 6 299 0.0 3.2 0.00 0.00 0.00 1 999.2
20200225180032 6 283 0.0 1.6 0.00 0.00 0.00 1 999.3
20200225175119 6 315 0.0 1.6 0.00 0.00 0.00 1 999.3
20200225174100 6 242 0.0 3.2 0.00 0.00 0.00 1 999.4
20200225173041 6 359 0.0 3.2 0.00 0.00 0.00 1 999.4
20200225172026 7 9 0.0 3.2 0.00 0.00 0.00 1 999.3
20200225171042 7 293 0.0 3.2 0.00 0.00 0.00 1 999.3
20200225170054 6 351 0.0 3.2 0.00 0.00 0.00 1 999.5
20200225165041 6 330 0.0 6.4 0.00 0.00 0.00 1 999.4
20200225164056 7 330 1.6 8.0 0.00 0.00 0.00 1 999.5
20200225163042 7 348 3.2 8.0 0.00 0.00 0.00 1 999.6
20200225162057 7 348 1.6 3.2 0.00 0.00 0.00 1 999.3
20200225161040 7 317 1.6 6.4 0.00 0.00 0.00 1 999.1
20200225160025 7 290 1.6 6.4 0.00 0.00 0.00 1 999.1
20200225155040 7 279 1.6 6.4 0.00 0.00 0.00 1 999.3
20200225154055 8 214 0.0 6.4 0.00 0.00 0.00 1 999.2
20200225153041 8 221 1.6 6.4 0.00 0.00 0.00 1 999.2
20200225152053 8 274 1.6 3.2 0.00 0.00 0.00 1 999.2
20200225151034 8 306 0.0 3.2 0.00 0.00 0.00 1 999.4
20200225150045 7 236 1.6 9.7 0.00 0.00 0.00 1 999.7
20200225145029 8 264 0.0 8.0 0.00 0.00 0.00 1 999.8
20200225144045 8 275 0.0 6.4 0.00 0.00 0.00 1 999.9
20200225143029 7 298 1.6 8.0 0.00 0.00 0.00 1 1000.0
20200225142046 8 327 1.6 8.0 0.00 0.00 0.00 1 1000.0
20200225141101 7 343 1.6 6.4 0.00 0.00 0.00 1 1000.1
20200225140043 8 327 1.6 9.7 0.00 0.00 0.00 1 1000.1
20200225135028 8 216 0.0 6.4 0.00 0.00 0.00 1 1000.2
20200225134042 7 279 0.0 6.4 0.00 0.00 0.00 1 1000.3
20200225133028 7 212 0.0 9.7 0.00 0.00 0.00 1 1000.4
20200225132043 7 327 0.0 3.2 0.00 0.00 0.00 1 1000.5
20200225131057 8 251 1.6 6.4 0.00 0.00 0.00 1 1000.6
20200225130043 8 297 1.6 9.7 0.00 0.00 0.00 1 1000.7
20200225125027 8 327 1.6 6.4 0.00 0.00 0.00 1 1000.9
20200225124043 8 290 0.0 6.4 0.00 0.00 0.00 1 1001.0
20200225123028 8 277 0.0 3.2 0.00 0.00 0.00 1 1001.1
20200225122044 8 331 1.6 6.4 0.00 0.00 0.00 1 1001.2
20200225121058 8 289 0.0 3.2 0.00 0.00 0.00 1 1001.4
20200225120043 8 353 1.6 9.7 0.00 0.00 0.00 1 1001.5
20200225115030 7 345 1.6 9.7 0.00 0.00 0.00 1 1001.6
20200225114045 8 307 3.2 9.7 0.00 0.00 0.00 1 1001.8
20200225113102 8 320 1.6 9.7 0.00 0.00 0.00 1 1001.8
20200225112037 8 333 1.6 9.7 0.00 0.00 0.00 1 1001.8
20200225111052 8 270 3.2 9.7 0.00 0.00 0.00 1 1002.0
20200225110034 8 293 0.0 3.2 0.00 0.00 0.00 1 1002.0
20200225105051 8 348 0.0 3.2 0.00 0.00 0.00 1 1002.1
20200225104037 8 292 1.6 8.0 0.00 0.00 0.00 1 1002.2
20200225103050 8 300 0.0 6.4 0.00 0.00 0.00 1 1002.2
20200225102037 8 311 1.6 6.4 0.00 0.00 0.00 1 1002.3
20200225101045 8 323 0.0 3.2 0.00 0.00 0.00 1 1002.2
20200225100031 8 311 0.0 6.4 0.00 0.00 0.00 1 1002.3
20200225095116 8 343 0.0 6.4 0.00 0.00 0.00 1 1002.4
20200225094032 8 321 0.0 3.2 0.00 0.00 0.00 1 1002.5
20200225093048 8 316 0.0 6.4 0.00 0.00 0.00 1 1002.6
20200225092034 8 325 1.6 6.4 0.00 0.00 0.00 1 1002.7
20200225091050 8 266 1.6 12.9 0.00 0.00 0.00 1 1002.7
20200225090034 8 183 0.0 6.4 0.00 0.00 0.00 1 1002.8
20200225085050 8 319 1.6 6.4 0.00 0.00 0.00 1 1002.9
20200225084135 8 289 1.6 8.0 0.00 0.00 0.00 1 1003.0
20200225083051 8 14 1.6 6.4 0.00 0.00 0.00 1 1003.1
20200225082038 8 265 0.0 6.4 0.00 0.00 0.00 1 1003.2
20200225081054 8 206 0.0 3.2 0.00 0.00 0.00 1 1003.2
20200225080037 8 259 1.6 9.7 0.00 0.00 0.00 1 1003.2
20200225075053 8 330 0.0 3.2 0.00 0.00 0.00 1 1003.2
20200225074037 7 326 0.0 1.6 0.00 0.00 0.00 1 1003.1
20200225073024 7 262 0.0 3.2 0.00 0.00 0.00 1 1003.2
20200225072039 7 300 0.0 3.2 0.00 0.00 0.00 1 1003.4
20200225071040 7 202 0.0 8.0 0.00 0.00 0.00 1 1003.4
20200225070050 7 292 0.0 6.4 0.00 0.00 0.00 1 1003.5
20200225065035 7 325 1.6 3.2 0.00 0.00 0.00 1 1003.6
20200225064121 7 270 0.0 3.2 0.00 0.00 0.00 1 1003.4
20200225063103 7 256 0.0 6.4 0.00 0.00 0.00 1 1003.5
20200225062049 7 306 0.0 3.2 0.00 0.00 0.00 1 1003.5
20200225061033 7 276 0.0 3.2 0.00 0.00 0.00 1 1003.6
20200225060047 7 304 0.0 3.2 0.00 0.00 0.00 1 1003.7
20200225055032 7 225 0.0 6.4 0.00 0.00 0.00 1 1003.9
20200225054118 7 225 0.0 1.6 0.00 0.00 0.00 1 1003.9
20200225053104 7 35 0.0 1.6 0.00 0.00 0.00 1 1004.0
20200225052041 7 326 0.0 6.4 0.00 0.00 0.00 1 1004.1
20200225051123 7 193 1.6 8.0 0.00 0.00 0.00 1 1004.1
20200225050033 7 316 0.0 3.2 0.00 0.00 0.00 1 1004.2
20200225045048 7 340 0.0 3.2 0.00 0.00 0.00 1 1004.0
20200225044035 7 330 1.6 6.4 0.00 0.00 0.00 1 1004.2
20200225043048 7 15 1.6 8.0 0.00 0.00 0.00 1 1004.3
20200225042100 7 7 1.6 6.4 0.00 0.00 0.00 1 1004.2
20200225041046 7 337 3.2 8.0 0.00 0.00 0.00 1 1004.4
20200225040031 7 14 3.2 9.7 0.00 0.00 0.00 1 1004.4
20200225035048 7 88 0.0 3.2 0.00 0.00 0.00 1 1004.4
20200225034033 7 344 1.6 8.0 0.00 0.00 0.00 1 1004.5
20200225033046 7 20 0.0 3.2 0.00 0.00 0.00 1 1004.5
20200225032102 7 346 1.6 6.4 0.00 0.00 0.00 1 1004.7
20200225031047 7 339 1.6 6.4 0.00 0.00 0.00 1 1004.7
20200225030033 7 344 3.2 9.7 0.00 0.00 0.00 1 1004.7
20200225025049 7 316 0.0 6.4 0.00 0.00 0.00 1 1004.8
20200225024035 8 297 1.6 8.0 0.00 0.00 0.00 1 1004.9
20200225023050 8 323 1.6 6.4 0.00 0.00 0.00 1 1005.0
20200225022034 8 323 0.0 3.2 0.00 0.00 0.00 1 1005.1
20200225021050 8 213 0.0 3.2 0.00 0.00 0.00 1 1005.2
20200225020032 8 326 0.0 9.7 0.00 0.00 0.00 1 1005.4
20200225015047 8 356 3.2 8.0 0.00 0.00 0.00 1 1005.6
20200225014033 8 332 1.6 6.4 0.00 0.00 0.00 1 1005.9
20200225013050 8 198 1.6 8.0 0.00 0.00 0.00 1 1006.0
20200225012037 8 355 1.6 8.0 0.00 0.00 0.00 1 1006.1
20200225011053 8 328 1.6 8.0 0.00 0.00 0.00 1 1006.3